Location: Voorhees State Park
(40.6817°N, 74.8983°W)
Time: 20:49:58
(UTC-04:00)

Daily predictions for brighter satellites

Satellite Brightness Start Highest point End
(mag) Time Altitude Azimuth Time Altitude Azimuth Time Altitude Azimuth
Cosmos 1048 Rocket 4.5 18:30:23 10° SSE 18:35:05 38° ESE 18:39:47 10° NE
BREEZE-M DEB (TANK) 1.4 18:33:45 10° WNW 18:36:06 62° SW 18:38:05 10° SE
ERS-2 2.1 18:34:00 10° SSE 18:37:40 70° ENE 18:41:22 10° N
SL-24 R/B - RUBIN 2 3.9 18:34:56 10° NW 18:39:46 77° WSW 18:44:09 10° SSE
YAOGAN 1 2.6 18:35:39 10° SSE 18:39:54 60° ENE 18:44:11 10° N
Cosmos 1420 Rocket 4.1 18:36:27 10° NNW 18:41:43 59° ENE 18:46:54 10° SSE
Cosmos 1726 3.3 18:41:43 10° SE 18:44:36 22° E 18:47:29 10° NE
GRACE-2 4.3 18:42:23 10° SSE 18:44:45 33° E 18:47:06 10° NNE
CZ-4 R/B 1.6 18:40:41 10° S 18:44:52 82° WSW 18:49:02 10° NNW
DELTA 2 R/B (1) 4.2 18:39:58 10° W 18:45:25 56° SSW 18:50:52 10° ESE
Cosmos 2322 3.7 18:39:40 10° NNW 18:45:26 85° ENE 18:51:08 10° SSE
EO 1 Del DPAF 3.3 18:44:27 10° NNE 18:48:15 58° E 18:52:02 10° S
IRS-1A Rocket 4.5 18:43:12 10° SSE 18:49:04 88° WSW 18:55:01 10° NNW
CZ-2C R/B 3.9 18:44:42 10° N 18:49:13 77° WNW 18:53:38 10° SSW
GRACE-1 3.9 18:47:54 10° SSE 18:50:22 44° E 18:52:52 10° NNE
Cosmos 2219 Rocket 2.8 18:46:45 10° N 18:51:50 34° ENE 18:56:53 10° ESE
Landsat 4 4.1 18:48:24 10° N 18:52:06 65° WNW 18:55:47 10° SSW
Cosmos 1821 Rocket 4.4 18:46:39 10° SSE 18:52:20 40° E 18:58:05 10° NNE
METEOR-M 4.1 18:51:00 10° SSE 18:56:17 66° ENE 19:01:35 10° N
CZ-4 R/B 4.4 18:52:17 10° SSE 18:56:25 84° ENE 19:00:35 10° N
BREEZE-M DEB (TANK) 2.9 18:55:02 10° W 18:57:14 32° NNW 18:58:56 11° NE
Cosmos 2221 2.5 18:56:31 10° S 19:00:47 64° E 19:05:06 10° NNE
Delta 2 Rocket 4.3 18:57:47 10° WSW 19:01:28 35° S 19:04:38 11° ESE
ALOS 2.6 18:57:38 10° SE 19:02:02 42° ENE 19:06:26 10° N
Cosmos 2084 4.2 18:58:49 10° NNW 19:02:04 26° NE 19:04:15 16° E
Meteor 1-28 Rocket 4.0 18:58:30 10° N 19:02:12 54° WNW 19:05:52 10° SSW
Thor Agena Rocket 4.3 18:58:54 10° NE 19:03:13 28° E 19:07:31 10° SSE
Cosmos 1315 Rocket 3.0 19:00:51 10° NNW 19:04:57 82° W 19:09:04 10° S
Cosmos 921 Rocket 3.5 19:01:32 10° NNW 19:05:56 67° WSW 19:10:14 10° S
SKYMED 2 3.5 19:02:46 10° NNE 19:07:08 80° ESE 19:11:28 10° S
GP-B 3.9 19:06:02 10° N 19:10:22 54° W 19:14:41 10° SSW
Cosmos 2333 4.2 19:15:38 10° NNW 19:21:23 88° ENE 19:27:10 10° SSE
BREEZE-M R/B 3.0 19:20:23 10° SSW 19:22:44 32° SE 19:23:15 29° ESE
Cosmos 2123 Rocket 4.2 19:17:27 10° N 19:23:25 45° ENE 19:29:24 10° SSE
Cosmos 1908 4.3 19:20:13 10° SSW 19:24:00 49° W 19:27:49 10° N
SJ-6B 3.9 19:25:54 23° NE 19:25:54 23° NE 19:28:15 10° NNE
Cosmos 1605 Rocket 4.4 19:21:20 10° SSE 19:26:51 37° E 19:32:22 10° NNE
Cosmos 2237 Rocket 2.8 19:23:51 10° N 19:29:07 37° ENE 19:31:45 24° ESE
Cosmos 1269 Rocket 4.2 19:24:53 10° SSW 19:30:09 78° WNW 19:35:28 10° NNE
Cosmos 44 4.0 19:26:14 10° SW 19:30:25 46° NW 19:34:37 10° NNE
DMSP B5D1-3 4.4 19:25:56 10° NNE 19:31:05 83° ESE 19:36:15 10° SSW
H-2A R/B 3.1 19:32:06 27° SE 19:33:40 42° ENE 19:37:23 10° N
Aureole 2 Rocket 2.7 19:31:00 10° NNW 19:34:59 88° ENE 19:39:04 10° SSE
Cosmos 2227 Rocket 2.6 19:30:39 10° S 19:35:52 40° ESE 19:39:16 20° NE
NOSS 0 Rocket 3.9 19:33:47 10° NNW 19:39:55 63° ENE 19:44:52 16° SE
SL-16 R/B 3.5 19:37:21 10° N 19:41:21 21° NE 19:41:21 21° NE
Atlas Centaur 2 4.3 19:40:13 10° SW 19:42:00 12° SSW 19:43:54 10° S
SPOT 3 Rocket 4.3 19:37:00 10° S 19:42:06 56° W 19:47:14 10° NNW
Iridium 4 Rocket 4.0 19:36:49 10° S 19:42:25 71° W 19:48:20 10° N
Gbstr 26 Del rocket 3.7 19:38:01 10° NW 19:43:07 81° SW 19:47:06 23° SE
Abrixas rocket 3.6 19:40:45 10° NW 19:43:33 26° NNE 19:43:33 26° NNE
Centaur D AC-28 4.4 19:43:13 10° S 19:46:59 18° SE 19:47:34 18° SE
Cosmos 1300 2.6 19:44:13 10° S 19:48:03 87° W 19:51:54 10° N
Cosmos 494 Rocket 3.9 19:43:37 10° S 19:48:38 62° ESE 19:52:55 14° NNE
Sich 1 3.0 19:46:19 10° N 19:50:44 89° SW 19:55:08 10° S
Cosmos 1980 3.6 19:48:04 10° NNW 19:53:41 61° ENE 19:55:59 35° SE
Resurs 01 Rocket 3.6 19:57:31 16° NNE 19:57:31 16° NNE 19:58:37 10° N
CZ-4C R/B 3.0 19:51:51 10° SW 19:56:55 49° NW 20:02:44 10° NNE
Cosmos 1110 Rocket 3.9 19:52:36 10° NNW 19:57:57 82° ENE 20:01:18 23° SSE
Cosmos 2098 Rocket 4.4 19:53:23 10° SSW 19:57:59 51° WNW 20:03:50 10° N
FREGAT/IRIS 4.5 20:00:58 24° NNW 20:00:58 24° NNW 20:02:20 10° NNW
Meteor 2-3 Rocket 4.0 19:55:09 10° N 20:00:30 43° ENE 20:00:30 43° ENE
FENGYUN 3A 4.3 19:55:26 10° S 20:00:43 56° W 20:06:03 10° NNW
COSMOS 2428 4.0 19:58:03 10° NW 20:03:17 39° WSW 20:08:30 10° S
USA 32 4.0 19:59:28 10° N 20:04:38 55° E 20:04:45 55° E
Cosmos 2333 Rocket 2.4 20:00:36 10° NNW 20:06:21 74° WSW 20:11:07 15° SSE
Cosmos 2219 4.4 20:01:24 10° SW 20:06:49 42° WNW 20:12:16 10° N
Meteor 2-10 4.4 20:05:06 10° SSW 20:10:04 62° WNW 20:15:11 10° N
Hubble Space Telescope 3.2 20:08:51 10° SSW 20:10:06 13° S 20:10:06 13° S
Cosmos 2297 Rocket 2.0 20:07:25 10° SSW 20:13:00 68° ESE 20:14:04 55° NE
Cosmos 1328 Rocket 3.6 20:15:24 10° SSW 20:25:10 - N 20:19:44 75° W
Cosmos 1633 Rocket 3.8 20:16:34 10° NNW 20:20:52 51° W 20:24:47 12° SSW
Envisat 4.2 20:24:49 29° NNE 20:24:49 29° NNE 20:27:24 10° N
Cosmos 2082 3.5 20:17:44 10° SSW 20:23:27 81° ESE 20:24:19 65° NE
Cosmos 2251 Rocket 3.4 20:18:55 10° SSW 20:24:13 87° WNW 20:25:27 55° NNE
Cosmos 2219 Rocket 3.7 20:30:44 10° NW 20:35:43 34° WSW 20:40:42 10° SSW
USA 267 3.6 20:48:34 51° S 20:48:34 51° S 20:53:32 10° SW
BREEZE-M DEB (TANK) 3.9 20:54:21 10° WNW 21:04:20 59° W 21:04:20 59° W
Cosmos 2237 Rocket 3.7 21:08:05 10° NW 21:13:04 32° WSW 21:13:39 31° WSW
Cosmos 2227 Rocket 3.8 21:15:04 10° WSW 21:20:00 30° WNW 21:21:12 28° NW
USA 234 4.5 21:23:45 32° N 21:23:45 32° N 21:27:47 10° NW
SL-16 R/B 3.9 21:20:35 10° NNW 21:23:15 28° NW 21:23:15 28° NW
